www.pogodaiklimat.ru

Погода и климат >> Архив погоды >> Россия >> Якутия >> Тегюльтя


АРХИВ ПОГОДЫ в Тегюльте

Время (UTC), дата Ветер
(напр.,м/с)
 
Видим.   Явления Облачность Т
(С)
Тd
(С)
f
(%)
Тe
(С)
Тes
(С)
Комфортность P
(гПа)
Po
(гПа)
Тmin
(С)
Tmax
(С)
R
(мм)
R24
(мм)
S
(см)
06 13.02 штиль 0 50 км 10/0
[Cs]
-28.2 -31.3 75 -28 -28 1022.7 998.0
09 13.02 штиль 0 10 км слаб. снег 10/0
[Cs]
-23.6 -26.2 79 -24 -24 1021.7 998.0
12 13.02 штиль 0 50 км {снег} 10/0
[Cs]
-27.5 -30.0 79 -28 -28 1022.0 998.0 -23.6 0.3
15 13.02 штиль 0 10 км слаб. снег 10/0
[Cs]
-28.1 -30.5 80 -28 -28 1022.2 998.0
18 13.02 штиль 0 10 км слаб. снег 10/0
[Cs]
-27.0 -29.5 79 -27 -27 1021.1 997.1
21 13.02 штиль 0 10 км слаб. снег 10/0
[Cs]
-26.1 -28.6 79 -26 -26 1020.2 996.3
00 14.02 штиль 0 50 км {снег} 10/0
[Cs]
-25.0 -27.4 80 -25 -25 1017.9 994.2 -28.2 0.9 47
03 14.02 З 3 50 км 10/0
[Ac trans Cs]
-17.5 -20.9 75 -25 -24 1018.7 995.7
06 14.02 З 4 50 км 8/0
[Ac trans]
-16.5 -19.9 75 -25 -24 1019.6 996.6
09 14.02 штиль 0 50 км 10/0
[Cs]
-21.3 -24.6 75 -21 -21 1020.0 996.6
12 14.02 штиль 0 10 км в посл. час снег 10/0
[Cs]
-18.6 -21.2 80 -19 -19 1020.0 996.8 -16.5 0.0
15 14.02 штиль 0 10 км слаб. снег 10/0
[Cs]
-23.0 -25.6 79 -23 -23 1020.3 996.8
18 14.02 штиль 0 10 км слаб. снег 10/0
[Cs]
-26.0 -28.4 80 -26 -26 1020.5 996.8
21 14.02 штиль 0 50 км {снег} 10/0
[Cs]
-27.8 -30.3 79 -28 -28 1019.7 995.8
00 15.02 штиль 0 50 км {снег} 10/0
[Cs]
-28.4 -30.8 80 -28 -28 1018.0 993.9 -28.5 0.6 47
03 15.02 штиль 0 20 км слаб. снег 10/0
[Cs]
-22.1 -24.7 79 -22 -20 1014.6 991.2
06 15.02 ЮЗ 4 20 км слаб. снег {метель} 10/0
[Cs]
-13.7 -16.4 80 -21 -21 1011.0 988.3
09 15.02 ЮЗ 4 10 км слаб. снег {метель} 10/0
[Cs]
-12.0 -14.0 85 -19 -19 1009.4 987.1
12 15.02 ЮЗ 2 10 км слаб. снег {метель} 10/0
[Cs]
-12.0 -14.0 85 -17 -17 1009.4 997.1 -12.0 1
15 15.02 ЮЗ 2 10 км слаб. снег 10/0
[Cs]
-13.5 -15.5 85 -18 -18 1009.2 986.8
18 15.02 штиль 0 10 км слаб. снег 10/0
[Cs]
-16.6 -18.5 85 -17 -17 1008.8 986.0
21 15.02 штиль 0 10 км слаб. снег 10/0
[Cs]
-18.6 -20.7 83 -19 -19 1006.7 983.8
00 16.02 штиль 0 10 км слаб. снег 10/0
[As op]
-13.4 -14.7 90 -13 -13 1002.9 980.6 -18.7 2 49
03 16.02 ЮЗ 4 10 км снег {метель} 10/0
[As op]
-10.1 -10.7 95 -17 -17 1000.7 978.8
06 16.02 ЮЗ 4 50 км позёмок {снег} 10/0
[As op]
-8.1 -12.2 72 -15 -15 1000.6 978.8
09 16.02 З 2 50 км 10/0
[Cs]
-9.2 -13.0 74 -14 -14 1000.7 978.8
12 16.02 ЮЗ 1 50 км 10/0
[Cs]
-11.3 -14.8 75 -14 -14 1001.9 979.8 -8.1 0.7
21 16.02 штиль 0 10 км слаб. снег 10/0
[Cs]
-15.2 -16.5 90 -15 -15 1004.6 982.1
00 17.02 ЮЗ 2 50 км {снег} 10/0
[Ac trans Cs]
-14.8 -17.5 80 -20 -20 1006.1 983.5 -17.3 0.4 50
03 17.02 З 3 50 км 8/0
[Cc]
-14.2 -16.9 80 -21 -19 1008.7 986.1
06 17.02 З 4 50 км позёмок 6/0
[Cc]
-13.5 -17.0 75 -21 -20 1009.2 986.8
09 17.02 ЮЗ 1 50 км {метель} 3/0
[Ci fib]
-15.8 -20.0 70 -18 -18 1011.5 988.8
12 17.02 штиль 0 50 км {метель} ясно -29.4 -32.4 75 -29 -29 1013.1 989.1 -13.5
15 17.02 штиль 0 50 км ясно -34.6 -37.4 76 -35 -35 опасность
обморожения
1014.1 989.5
18 17.02 штиль 0 50 км ясно -36.7 -39.4 76 -37 -37 опасность
обморожения
1015.3 990.5
21 17.02 штиль 0 50 км ясно -38.5 -41.4 74 -39 -39 опасность
обморожения
1015.8 990.8
00 18.02 штиль 0 50 км 3/0
[Ci fib]
-40.3 -43.3 73 -40 -40 опасность
обморожения
1015.8 990.5 -40.4 50
03 18.02 штиль 0 50 км 3/0
[Ci fib]
-29.2 -32.2 75 -29 -26 1014.5 990.5
06 18.02 штиль 0 50 км 6/0
[Ci fib]
-19.8 -23.9 70 -20 -19 1012.3 989.2
09 18.02 штиль 0 50 км 6/0
[Ci fib]
-23.1 -26.4 74 -23 -23 1013.9 990.5
12 18.02 штиль 0 50 км 6/0
[Ci fib]
-34.9 -37.7 75 -35 -35 опасность
обморожения
1016.7 992.1 -19.8
15 18.02 штиль 0 50 км 10/0
[Ci fib]
-35.6 -38.4 75 -36 -36 опасность
обморожения
1018.4 993.7
18 18.02 штиль 0 50 км 10/0
[Ci fib]
-35.8 -38.7 75 -36 -36 опасность
обморожения
1020.2 995.5
21 18.02 штиль 0 50 км 10/0
[Cs]
-33.2 -36.3 74 -33 -33 опасность
обморожения
1020.3 995.8
00 19.02 штиль 0 50 км 6/0
[Ci fib]
-31.4 -34.3 75 -31 -31 опасность
обморожения
1021.5 997.2 -35.9 50
03 19.02 штиль 0 50 км 3/0
[Ci fib]
-24.2 -27.4 75 -24 -21 1020.9 997.2
06 19.02 штиль 0 50 км 3/0
[Ci fib]
-17.7 -21.9 70 -18 -17 1017.7 994.7
09 19.02 штиль 0 50 км 10/0
[Cs]
-17.3 -21.5 70 -17 -17 1014.7 991.8
12 19.02 штиль 0 50 км 10/0
[Cs]
-16.8 -20.2 75 -17 -17 1013.5 990.6 -16.8
18 19.02 СВ 1 10 км слаб. снег 10/0
[Cs]
-16.2 -18.1 85 -19 -19 1013.2 990.3
21 19.02 В 1 10 км слаб. снег 10/0
[Cs]
-16.8 -18.7 85 -20 -20 1013.0 990.1
00 20.02 В 1 50 км {снег} 10/0
[Cs]
-17.6 -19.5 85 -20 -20 1013.0 990.1 -18.3 0.7 51
03 20.02 СВ 1 50 км 10/0
[Cs]
-15.5 -18.2 80 -18 -16 1013.8 991.1

 

Местоположение метеостанции Тегюльтя (Якутия, Россия): широта 60.47 долгота 130.00 высота над уровнем моря 171 м.

В архиве по умолчанию представлена погода в Тегюльте за последнюю неделю. Архивные данные за месяц целиком и за предыдущие месяцы, начиная с января 2011 года, Вы можете получить, выбрав интересующий диапазон дат из раскрывающегося списка и нажав кнопку "Ввод!".


*Определитесь, кто Вы:
робот инопланетянин человек

Внимание! Время в таблицах - всемирное. Для получения местного времени необходимо прибавить поправку, которая равна 9 ч.

Смотрите также архив погоды в соседних городах и на ближайших метеорологических станциях:

Погода в Амге (Якутия, Россия) (114 км)
Погода в Покровске (Якутия, Россия) (122 км)
Погода в Якутске (Якутия, Россия) (172 км)
Погода в Буяге (Якутия, Россия) (189 км)
Погода в Усть-Миле (Якутия, Россия) (191 км)
Погода в Учуре (Якутия, Россия) (196 км)
Погода в Угино (Якутия, Россия) (221 км)
Погода в Чурапче (Якутия, Россия) (222 км)
Погода в Усть-Мае (Якутия, Россия) (242 км)
Погода в Намцах (Якутия, Россия) (251 км)

Пояснения к столбцам:

Ветер - указаны скорость ветра в м/с - средняя за 10 мин, порывы в срок и между сроками (в фигурных скобках) и направление, откуда дует ветер: С - северный, СВ - северо-восточный, В - восточный, ЮВ - юго-восточный, Ю - южный, ЮЗ - юго-западный, З - западный, СЗ - северо-западный.
Видимость - горизонтальная дальность видимости в метрах или километрах. При видимости от 1 до 10 км при отсутствии осадков обычно наблюдается дымка, при ухудшении видимости до 1 км и менее - туман. В сухую погоду видимость может ухудшаться дымом, пылью или мглою.
Явления - указаны атмосферные явления, наблюдавшиеся в срок или в последний час перед сроком; фигурными скобками обозначены явления, наблюдавшиеся между сроками (за 1-3 часа до срока); квадратными скобками обозначены град или гололедные отложения с указанием их диаметра в мм.
Облачность - указаны через наклонную черту общая и нижняя облачность в баллах и высота нижней границы облаков в метрах; квадратными скобками обозначены формы облаков: Ci - перистые, Cs - перисто-слоистые, Cc - перисто-кучевые, Ac - высококучевые, As - высокослоистые, Sc - слоисто-кучевые, Ns - слоисто-дождевые, Cu - кучевые, Cb - кучево-дождевые. Подробнее классификацию облаков см. в Атласе облаков (PDF).
T - Температура воздуха - температура, измеренная на высоте 2 м над землей.
Td - Температура точки росы - температура, при понижении до которой содержащийся в воздухе водяной пар достигнет насыщения.
f - Относительная влажность воздуха - влажноcть воздуха, измеренная на высоте 2 м над землей.
Te - Эффективная температура - температура, которую ощущает одетый по сезону человек в тени. Характеристика душности погоды. При расчете учитывается влияние влажности воздуха и скорости ветра на теплоощущения человека.
Tes - Эффективная температура на солнце - температура, которую ощущает человек, с поправкой на солнечный нагрев. Характеристика знойности погоды. Зависит от высоты солнца над горизонтом, облачности и скорости ветра. Ночью, в пасмурную погоду, а также при ветре 12 м/с и более поправка равна нулю.
P - Атмосферное давление - приведенное к уровню моря атмосферное давление.
Po - Атмосферное давление - измеренное на уровне метеостанции атмосферное давление.
Tmin - Минимальная температура - минимум температуры воздуха на высоте 2 м над землей.
Tmax - Максимальная температура - максимум температуры воздуха на высоте 2 м над землей.
R - Количество осадков - Количество выпавших осадков за период времени, мм. При наведении курсора мыши на число - период времени, за который выпало указанное количество осадков.
R24 - Количество осадков - Количество выпавших осадков за 24 часа, мм.
S - Снежный покров - Высота снежного покрова, см. При наведении курсора мыши на число - состояние снежного покрова и степень покрытия местности в баллах.